[[{"header":{"parameterUnit":"m.s-1","parameterCategory":1,"la1":30.2991,"la2":30.254,"lo1":-89.0895,"lo2":-89.0444,"dy":0.0017,"dx":0.0017,"nx":28,"ny":28,"refTime":"2023-04-26T21:00:00:Z","depth":0,"parameterNumber":2,"parameterNumberName":"U-component_of_WINDS"},"data":[0,0,0,0,0,0,0,0,0,0,0,0,0,0,0,0,0,0,0,0,0,0,0,0,0,0,0,0,0,0,0,0,0,0,0,0,0,0,0,0,0,0,0,0,0,0,0,0,0,0,0,0,0,0,0,0,0,0,-6.3804,-6.3805,0,-6.3905,-6.3907,-6.3908,-6.3837,-6.3833,-6.383,-6.3827,-6.3927,-6.3933,-6.3938,0,0,0,0,0,0,0,0,0,0,0,0,0,-6.3544,-6.355,-6.3803,-6.3805,-6.3806,-6.3905,-6.3907,-6.3908,-6.3837,-6.3833,-6.3829,-6.3826,-6.3925,-6.3932,-6.3939,0,0,0,0,0,0,0,0,0,0,0,0,0,-6.3653,-6.3551,-6.3803,-6.3783,-6.3782,-6.3905,-6.3907,-6.3908,-6.3838,-6.3833,-6.3828,-6.3824,-6.3923,-6.3931,-6.394,-6.4087,0,0,-6.3965,-6.3969,0,0,0,0,0,0,0,0,-6.3647,-6.3662,-6.3785,-6.3784,-6.3784,-6.3854,-6.3852,-6.3968,-6.3839,-6.3817,-6.3827,-6.3822,-6.3906,-6.3916,-6.3945,-6.4092,-6.4096,-6.3966,-6.3971,-6.3975,-6.3977,0,0,0,0,0,0,0,-6.3639,-6.3657,-6.3844,-6.3786,-6.3786,-6.3767,-6.3778,-6.3874,-6.3887,-6.3818,-6.3813,-6.3827,-6.3905,-6.3937,-6.3947,-6.4097,-6.3966,-6.3973,-6.3978,-6.3982,-6.4369,-6.4374,0,0,0,0,0,0,-6.3634,-6.3652,-6.384,-6.3847,-6.3702,-6.3776,-6.3787,-6.3836,-6.3885,-6.3889,-6.3831,-6.3823,-6.3925,-6.3937,-6.395,-6.4124,-6.3975,-6.3983,-6.3987,-6.4364,-6.4371,-6.4376,0,0,0,0,0,0,-6.3629,-6.3652,-6.3836,-6.3748,-6.377,-6.3786,-6.3841,-6.384,-6.3872,-6.3895,-6.3896,-6.3861,-6.3922,-6.3938,-6.4054,-6.4127,-6.3986,-6.3994,-6.4358,-6.4366,-6.4373,-6.4475,0,0,0,0,0,0,-6.3622,-6.365,-6.3707,-6.375,-6.3775,-6.3939,-6.3845,-6.3846,-6.3888,-6.3879,-6.3924,-6.3927,-6.3919,-6.4041,-6.4062,-6.4136,-6.4001,-6.4351,-6.4362,-6.4371,-6.4465,-6.4485,-6.4503,0,0,0,0,0,-6.3613,-6.373,-6.371,-6.3733,-6.3846,-6.3943,-6.3958,-6.3948,-6.3894,-6.395,-6.3965,-6.3925,-6.4117,-6.4054,-6.4076,-6.4154,-6.4347,-6.4359,-6.437,-6.4457,-6.4481,-6.4502,0,0,0,0,0,0,-6.3693,-6.3735,-6.3713,-6.3849,-6.3893,-6.3931,-6.4002,-6.3975,-6.4034,-6.4023,-6.4007,-6.4018,-6.4139,-6.4158,-6.4088,-6.4299,-6.4223,-6.424,-6.4281,-6.4305,-6.4323,-6.4314,-6.4008,0,0,0,0,0,-6.3727,-6.3804,-6.3836,-6.3952,-6.3976,-6.3986,-6.4028,-6.4017,-6.4061,-6.4079,-6.4102,-6.4146,-6.4216,-6.4262,-6.4328,-6.447,-6.4477,-6.4534,-6.4553,-6.4568,-6.4582,-6.4657,-6.4682,-6.4415,-6.4415,-6.4415,0,0,-6.3797,-6.383,-6.3878,-6.397,-6.4003,-6.4081,-6.4002,-6.4088,-6.4145,-6.4092,-6.4201,-6.4221,-6.4269,-6.4398,-6.4456,-6.4418,-6.4658,-6.4584,-6.4596,-6.46,-6.4672,-6.4697,-6.4719,-6.4423,-6.4421,-6.442,0,0,-6.3963,-6.3997,-6.4097,-6.4133,-6.4185,-6.4191,-6.4216,-6.4259,-6.427,-6.4381,-6.4342,-6.4411,-6.4532,-6.4567,-6.4601,-6.4785,-6.475,-6.4807,-6.4904,-6.4977,-6.4998,-6.5017,-6.508,-6.5103,-6.4821,-6.4822,-6.4822,0,-6.4042,-6.4159,-6.4151,-6.4241,-6.4281,-6.424,-6.434,-6.4375,-6.4446,-6.4474,-6.4432,-6.4584,-6.4614,-6.4749,-6.4795,-6.4825,-6.485,-6.4799,-6.4996,-6.5015,-6.5032,-6.5092,-6.5116,-6.4828,-6.4827,-6.4827,-6.4826,0,-6.4253,-6.4336,-6.441,-6.4481,-6.4531,-6.4626,-6.4631,-6.4682,-6.4668,-6.4679,-6.4792,-6.4827,-6.4899,-6.4931,-6.4918,-6.5066,-6.5041,-6.4999,-6.492,-6.5064,-6.512,-6.5143,-6.4837,-6.4835,-6.4833,-6.4831,0,0,-6.4468,-6.4536,-6.4563,-6.4595,-6.4651,-6.4714,-6.4807,-6.488,-6.4923,-6.4974,-6.505,-6.5156,-6.5117,-6.5156,-6.5147,-6.5212,-6.5353,-6.5161,-6.5162,-6.5193,-6.5516,-6.5545,-6.5572,-6.5333,-6.5337,-6.5341,-6.5511,0,-6.4634,-6.4797,-6.4794,-6.4945,-6.502,-6.4984,-6.5065,-6.5108,-6.5122,-6.5187,-6.5201,-6.5275,-6.522,-6.5243,-6.5306,-6.5323,-6.5417,-6.5311,-6.5401,-6.5404,-6.5385,-6.5601,-6.5632,-6.5791,-6.5533,-6.5537,-6.554,0,-6.4849,-6.491,-6.5069,-6.5115,-6.5146,-6.5219,-6.5285,-6.5349,-6.5397,-6.5403,-6.5448,-6.5429,-6.5523,-6.5447,-6.5575,-6.5502,-6.554,-6.5554,-6.556,-6.5564,-6.5477,-6.5608,-6.5841,-6.5864,-6.5575,-6.5572,-6.5569,0,-6.4986,-6.5108,-6.5218,-6.5247,-6.5304,-6.5356,-6.5383,-6.5427,-6.5471,-6.5529,-6.5557,-6.5625,-6.5662,-6.5715,-6.5715,-6.566,-6.5844,-6.5767,-6.5848,-6.5848,-6.5884,-6.5881,-6.6123,-6.5916,-6.5915,-6.5915,-6.5914,0,-6.517,-6.5267,-6.528,-6.5347,-6.5456,-6.5453,-6.556,-6.5581,-6.5621,-6.5691,-6.5666,-6.5732,-6.573,-6.5797,-6.5798,-6.5903,-6.592,-6.5926,-6.5924,-6.5926,-6.5924,-6.5946,-6.5934,-6.5921,-6.592,-6.5919,-6.5918,0,-6.5338,-6.5351,-6.5469,-6.5515,-6.5529,-6.5607,-6.5646,-6.571,-6.5723,-6.5812,-6.5833,-6.5852,-6.593,-6.5938,-6.6028,-6.6028,-6.6154,-6.6143,-6.6138,-6.6134,-6.6213,-6.6205,-6.6474,-6.6509,-6.6283,-6.6285,-6.6287,0,-6.5452,-6.5527,-6.5583,-6.5629,-6.5658,-6.5733,-6.5778,-6.5779,-6.5827,-6.5889,-6.5946,-6.6022,-6.6082,-6.6209,-6.623,-6.6299,-6.6286,-6.6377,-6.6296,-6.6296,-6.6284,-6.6278,-6.6284,-6.639,-6.6393,-6.6395,-6.6397,0,-6.5653,-6.5656,-6.5723,-6.5794,-6.585,-6.5905,-6.5956,-6.5995,-6.6002,-6.6058,-6.6138,-6.6185,-6.6279,-6.6354,-6.6423,-6.6448,-6.6423,-6.6423,-6.6444,-6.6444,-6.6437,-6.6439,-6.6176,-6.6415,-6.6413,-6.6412,-6.6411,-6.641,-6.5795,-6.5859,-6.5909,-6.5985,-6.6025,-6.6074,-6.6136,-6.6159,-6.6226,-6.6303,-6.63,-6.6388,-6.6436,-6.6526,-6.6557,-6.6626,-6.6595,-6.6627,-6.6635,-6.6642,-6.6648,-6.6431,-6.6639,-6.6638,-6.6638,-6.6637,-6.6637,0,-6.5991,-6.6022,-6.6092,-6.6166,-6.6226,-6.6202,-6.6258,-6.6309,-6.6388,-6.6436,-6.6497,-6.659,-6.6663,-6.6693,-6.6764,-6.6814,-6.6804,-6.6832,-6.6826,-6.6832,-6.6673,-6.6645,-6.6839,-6.6839,-6.6839,-6.6839,-6.6839,-6.6839,-6.6099,-6.6207,-6.6217,-6.6344,-6.6374,-6.6462,-6.6496,-6.6541,-6.6579,-6.6684,-6.6746,-6.6766,-6.6806,-6.6881,-6.6948,-6.6954,-6.698,-6.7013,-6.7014,-6.6864,-6.6843,-6.6824,-6.6798,-6.702,-6.702,-6.7167,-6.7168,-6.7169]},{"header":{"parameterUnit":"m.s-1","parameterCategory":1,"la1":30.2991,"la2":30.254,"lo1":-89.0895,"lo2":-89.0444,"dy":0.0017,"dx":0.0017,"nx":28,"ny":28,"refTime":"2023-04-26T21:00:00:Z","depth":0,"parameterNumber":3,"parameterNumberName":"V-component_of_WINDS"},"data":[0,0,0,0,0,0,0,0,0,0,0,0,0,0,0,0,0,0,0,0,0,0,0,0,0,0,0,0,0,0,0,0,0,0,0,0,0,0,0,0,0,0,0,0,0,0,0,0,0,0,0,0,0,0,0,0,0,0,3.2115,3.2116,0,3.2167,3.2167,3.2168,3.2178,3.2178,3.2178,3.2177,3.2227,3.2229,3.223,0,0,0,0,0,0,0,0,0,0,0,0,0,3.2025,3.2026,3.2115,3.2116,3.2116,3.2167,3.2167,3.2168,3.2178,3.2178,3.2177,3.2177,3.2227,3.2229,3.2231,0,0,0,0,0,0,0,0,0,0,0,0,0,3.2069,3.2027,3.2115,3.2128,3.2129,3.2166,3.2167,3.2168,3.2178,3.2178,3.2177,3.2177,3.2226,3.2228,3.2231,3.2258,0,0,3.2239,3.224,0,0,0,0,0,0,0,0,3.2066,3.2072,3.2125,3.2127,3.2129,3.2166,3.2154,3.2198,3.2179,3.216,3.2177,3.2177,3.2207,3.2211,3.2222,3.226,3.2262,3.2239,3.224,3.2241,3.2242,0,0,0,0,0,0,0,3.2063,3.207,3.2135,3.2126,3.2128,3.2131,3.2136,3.2162,3.2186,3.2161,3.2162,3.2168,3.2208,3.2219,3.2223,3.2263,3.2239,3.2241,3.2243,3.2244,3.2328,3.2329,0,0,0,0,0,0,3.2058,3.2067,3.2134,3.2137,3.2096,3.2133,3.2139,3.2154,3.2186,3.219,3.2169,3.2169,3.2215,3.222,3.2225,3.226,3.2241,3.2244,3.2245,3.2328,3.2329,3.2329,0,0,0,0,0,0,3.2056,3.2064,3.2132,3.2102,3.2111,3.2135,3.2152,3.2156,3.2167,3.2191,3.2195,3.2176,3.2215,3.2221,3.225,3.2261,3.2245,3.2247,3.2327,3.2328,3.2329,3.2328,0,0,0,0,0,0,3.2054,3.2063,3.2074,3.2103,3.2113,3.2156,3.2153,3.2157,3.2172,3.2172,3.2199,3.2203,3.2215,3.2246,3.2253,3.2264,3.2249,3.2326,3.2327,3.2329,3.2327,3.2329,3.2331,0,0,0,0,0,3.205,3.207,3.2074,3.2082,3.2127,3.2157,3.2163,3.2177,3.2173,3.2183,3.2199,3.2202,3.226,3.2249,3.2256,3.2269,3.2325,3.2327,3.2329,3.2327,3.2329,3.2331,0,0,0,0,0,0,3.204,3.2074,3.2079,3.2109,3.213,3.2159,3.2172,3.2178,3.22,3.2199,3.2215,3.2221,3.2249,3.2262,3.225,3.2298,3.2292,3.2295,3.2288,3.2291,3.2292,3.2288,3.2251,0,0,0,0,0,3.2042,3.2065,3.2093,3.2117,3.2127,3.2148,3.2162,3.2171,3.2193,3.2202,3.222,3.2241,3.2264,3.2278,3.23,3.233,3.2336,3.2343,3.2344,3.2346,3.2348,3.2366,3.2369,3.2335,3.2335,3.2335,0,0,3.2045,3.2066,3.2079,3.2115,3.2133,3.2156,3.2155,3.2179,3.2196,3.2205,3.2234,3.2248,3.2273,3.2303,3.2317,3.2314,3.2359,3.2348,3.2349,3.235,3.2368,3.2371,3.2374,3.2336,3.2336,3.2336,0,0,3.2062,3.208,3.2103,3.2121,3.2149,3.2163,3.2169,3.2197,3.2207,3.2237,3.2245,3.2265,3.2304,3.2321,3.2335,3.2362,3.2366,3.2369,3.2377,3.2395,3.2398,3.24,3.241,3.2413,3.2372,3.2372,3.2372,0,3.2062,3.2097,3.2114,3.2138,3.2154,3.2165,3.2189,3.2205,3.2238,3.2248,3.2246,3.2296,3.2313,3.2348,3.2355,3.2366,3.2373,3.2365,3.2396,3.2399,3.2401,3.2411,3.2414,3.2372,3.2372,3.2372,3.2372,0,3.2096,3.212,3.2135,3.2168,3.2186,3.221,3.223,3.2246,3.2255,3.2269,3.23,3.2322,3.2349,3.2358,3.2366,3.2395,3.2393,3.2393,3.2387,3.2404,3.2414,3.2417,3.2372,3.2372,3.2372,3.2372,0,0,3.2105,3.215,3.2155,3.2171,3.2203,3.2222,3.2247,3.2275,3.2289,3.2312,3.2333,3.2367,3.2368,3.2384,3.2394,3.241,3.2431,3.2408,3.2409,3.2412,3.2465,3.2464,3.2468,3.2434,3.2435,3.2436,3.2463,0,3.2126,3.2171,3.2188,3.2225,3.2248,3.2261,3.2283,3.2305,3.232,3.2342,3.2358,3.2382,3.2382,3.2392,3.2408,3.2425,3.2442,3.2423,3.2454,3.2454,3.2446,3.2473,3.2471,3.2495,3.2466,3.2467,3.2467,0,3.2156,3.2181,3.222,3.2252,3.2262,3.2281,3.231,3.2331,3.2357,3.2367,3.2386,3.2396,3.2423,3.2416,3.2453,3.2441,3.2455,3.2465,3.2467,3.2469,3.2461,3.2475,3.2503,3.2507,3.2473,3.2473,3.2472,0,3.2159,3.2203,3.2233,3.2246,3.2283,3.2297,3.2313,3.2338,3.2355,3.238,3.2391,3.2418,3.2433,3.2454,3.2471,3.2465,3.2507,3.2502,3.2515,3.2515,3.2522,3.2521,3.2552,3.2532,3.2532,3.2532,3.2532,0,3.218,3.2204,3.2235,3.2253,3.228,3.23,3.2327,3.2343,3.2367,3.2388,3.2401,3.2421,3.2443,3.2466,3.2479,3.2508,3.2515,3.2523,3.2527,3.2522,3.2521,3.253,3.2529,3.2533,3.2533,3.2533,3.2533,0,3.2188,3.221,3.2243,3.2277,3.2286,3.2305,3.2333,3.2351,3.2368,3.2396,3.2403,3.2429,3.2457,3.2477,3.2512,3.2521,3.2553,3.2556,3.2544,3.2545,3.2558,3.2556,3.2595,3.2602,3.2578,3.2578,3.2578,0,3.2199,3.2218,3.2255,3.2271,3.2288,3.2313,3.2331,3.2352,3.237,3.2402,3.2417,3.2446,3.247,3.2514,3.2536,3.2563,3.2567,3.2579,3.2571,3.2566,3.2567,3.2565,3.2568,3.258,3.258,3.258,3.258,0,3.2218,3.2228,3.2254,3.2284,3.2305,3.233,3.2354,3.2366,3.2392,3.2411,3.2441,3.246,3.2497,3.2526,3.2556,3.2573,3.2581,3.2583,3.2587,3.2582,3.2574,3.2579,3.2547,3.2581,3.2581,3.2581,3.2581,3.2581,3.2228,3.2246,3.2275,3.2303,3.2325,3.2348,3.2367,3.2387,3.2412,3.2445,3.2456,3.2487,3.2514,3.2556,3.2573,3.2597,3.2596,3.2603,3.2604,3.2606,3.2605,3.2572,3.2603,3.2603,3.2603,3.2603,3.2603,0,3.2247,3.2267,3.2293,3.2328,3.2351,3.2358,3.2386,3.2405,3.2432,3.2457,3.2482,3.2516,3.2545,3.257,3.26,3.2614,3.2619,3.2621,3.262,3.2624,3.2604,3.2597,3.2617,3.2617,3.2617,3.2617,3.2617,3.2617,3.2259,3.2291,3.2305,3.2347,3.2367,3.2398,3.2413,3.2435,3.2456,3.2494,3.2518,3.2535,3.2561,3.2593,3.262,3.2626,3.2636,3.2638,3.2645,3.2627,3.2625,3.2623,3.2617,3.264,3.264,3.2663,3.2663,3.2663]}]]